This is the latest recevied weather packets stored in our database for station/object OK0EK-11. If no packets are shown the sender has not sent any weather packets the latest 10 day(s).
| Time | Temp. | Humidity | Pressure | Rain* | Wind** | Luminosity | Snow |
|---|---|---|---|---|---|---|---|
| 1778157000 | 13.89° C | 68% | 1014.9 hPa | - | - | - | - |
| 1778156401 | 13.33° C | 69% | 1015.1 hPa | - | - | - | - |
| 1778155802 | 13.33° C | 70% | 1015.1 hPa | - | - | - | - |
| 1778155202 | 13.89° C | 69% | 1015 hPa | - | - | - | - |
| 1778154603 | 14.44° C | 69% | 1014.9 hPa | - | - | - | - |
| 1778154003 | 14.44° C | 69% | 1015 hPa | - | - | - | - |
| 1778153404 | 14.44° C | 71% | 1015 hPa | - | - | - | - |
| 1778152805 | 13.33° C | 75% | 1015.2 hPa | - | - | - | - |
| 1778152206 | 12.22° C | 79% | 1015.1 hPa | - | - | - | - |
| 1778151607 | 11.67° C | 81% | 1014.9 hPa | - | - | - | - |
| 1778151007 | 11.67° C | 81% | 1015.1 hPa | - | - | - | - |
| 1778150408 | 12.22° C | 78% | 1015 hPa | - | - | - | - |
| 1778149808 | 12.22° C | 76% | 1014.9 hPa | - | - | - | - |
| 1778149209 | 12.22° C | 74% | 1014.8 hPa | - | - | - | - |
| 1778148609 | 13.33° C | 74% | 1014.9 hPa | - | - | - | - |
| 1778148009 | 12.78° C | 75% | 1014.7 hPa | - | - | - | - |
| 1778147410 | 13.33° C | 75% | 1014.7 hPa | - | - | - | - |
| 1778146810 | 13.33° C | 75% | 1014.6 hPa | - | - | - | - |
| 1778146211 | 13.33° C | 76% | 1014.7 hPa | - | - | - | - |
| 1778145612 | 13.33° C | 76% | 1014.4 hPa | - | - | - | - |
| 1778145012 | 13.33° C | 74% | 1014.2 hPa | - | - | - | - |
| 1778144413 | 13.33° C | 75% | 1014.2 hPa | - | - | - | - |
| 1778143814 | 13.33° C | 76% | 1014.1 hPa | - | - | - | - |
| 1778143214 | 12.22° C | 80% | 1014 hPa | - | - | - | - |
| 1778142615 | 12.78° C | 78% | 1014 hPa | - | - | - | - |
* Rain since midnight (hover to see other rain measurements)
** Current wind speed in m/s (hover to see current wind gust speed)